Home   Weather   Salem   Past weeks

Flag for USA Past Weather in Salem, Oregon, USA — Yesterday and Last 2 Weeks

Now
59 °F

Sunny.


Feels Like: 58 °F
Forecast: 57 / 90 °F
Wind: 6 mph from North

Location: McNary Field

Current Time: Jul 24, 2017 at 7:58:01 am

Latest Report: Jul 24, 2017 at 6:56 am


Visibility: 10 mi

Pressure: 29.97 "Hg

Humidity: 72%

Dew Point: 50 °F

Location of SalemLocation

Past Weather in Salem — Graph

°F

Salem Temperature Yesterday

Maximum temperature yesterday: 89 °F (at 3:56 pm)
Minimum temperature yesterday: 62 °F (at 11:56 pm)
Average temperature yesterday: 74 °F

High & Low Weather Summary for the Past Weeks

 TemperatureHumidityPressure
High93 °F (Jul 22, 4:56 pm)89% (Jul 21, 4:56 am)30.28 "Hg (Jul 21, 4:56 am)
Low51 °F (Jul 19, 4:56 am)24% (Jul 10, 4:56 pm)29.89 "Hg (Jul 23, 6:56 pm)
Average68 °F55%30.07 "Hg
* Reported Jul 9 5:56 am — Jul 24 5:56 am, Salem. Weather by CustomWeather, © 2017

Note: Actual official high and low records may vary slightly from our data, if they occured in-between our weather recording intervals... More about our weather records

Advertising

Salem Weather History for the Previous 24 Hours

Scroll right to see more
 ConditionsComfort  
Time TempWeatherWind HumidityBarometerVisibility
5:56 am
Mon, Jul 24
55 °FSunny.6 mph77%29.96 "Hg10 mi
4:56 am56 °FClear.No wind72%29.97 "Hg10 mi
3:56 am57 °FClear.3 mph69%29.96 "Hg10 mi
2:56 am58 °FClear.5 mph67%29.97 "Hg10 mi
1:56 am58 °FClear.6 mph70%29.97 "Hg10 mi
12:56 am60 °FClear.6 mph67%29.98 "Hg10 mi
11:56 pm
Sun, Jul 23
62 °FClear.5 mph65%29.97 "Hg10 mi
10:56 pm66 °FClear.10 mph56%29.95 "Hg10 mi
9:56 pm69 °FClear.13 mph55%29.93 "Hg10 mi
8:56 pm74 °FClear.14 mph48%29.91 "Hg10 mi
7:56 pm81 °FSunny.15 mph41%29.90 "Hg10 mi
6:56 pm85 °FSunny.14 mph37%29.89 "Hg10 mi
5:56 pm87 °FSunny.17 mph35%29.90 "Hg10 mi
4:56 pm89 °FSunny.13 mph29%29.90 "Hg10 mi
3:56 pm89 °FSunny.16 mph35%29.92 "Hg10 mi
2:56 pm87 °FSunny.16 mph37%29.94 "Hg10 mi
1:56 pm83 °FSunny.13 mph44%29.96 "Hg10 mi
12:56 pm80 °FSunny.9 mph51%29.99 "Hg10 mi
11:56 am78 °FScattered clouds.13 mph54%30.01 "Hg10 mi
10:56 am75 °FScattered clouds.13 mph60%30.02 "Hg10 mi
9:56 am72 °FPartly sunny.10 mph66%30.03 "Hg10 mi
8:56 am70 °FOvercast.12 mph71%30.03 "Hg10 mi
8:03 am67 °FPartly sunny.7 mph79%30.04 "Hg10 mi
7:56 am66 °FScattered clouds.8 mph78%30.03 "Hg10 mi
Weather by CustomWeather, © 2017

See weather overviewHow to use our weather pages